Waarnemingen

Advertentie
Mijn weer
Düsseldorf, Duitsland (10400): temperatuur & dauwpunt: 17.05.2018 01:00:00 - 23.05.2018 01:00:00 (CEST)Düsseldorf, Duitsland (10400): temperatuur 5cm & temperatuur -5cm: 17.05.2018 01:00:00 - 23.05.2018 01:00:00 (CEST)Düsseldorf, Duitsland (10400): temperatuur -20cm & temperatuur -100cm: 17.05.2018 01:00:00 - 23.05.2018 01:00:00 (CEST)Düsseldorf, Duitsland (10400): windsnelheid & windstoten: 17.05.2018 01:00:00 - 23.05.2018 01:00:00 (CEST)Düsseldorf, Duitsland (10400): windrichting: 17.05.2018 01:00:00 - 23.05.2018 01:00:00 (CEST)Düsseldorf, Duitsland (10400): luchtdruk: 17.05.2018 01:00:00 - 23.05.2018 01:00:00 (CEST)Düsseldorf, Duitsland (10400): zicht: 17.05.2018 01:00:00 - 23.05.2018 01:00:00 (CEST)Düsseldorf, Duitsland (10400): Zonneschijnduur: 17.05.2018 01:00:00 - 23.05.2018 01:00:00 (CEST)Düsseldorf, Duitsland (10400): neerslag: 17.05.2018 01:00:00 - 23.05.2018 01:00:00 (CEST)
Datum & Tijd tt [°C] td [°C] tt 5cm [°C] tt -5cm [°C] tt -20cm [°C] tt -100cm [°C] ff [km/u] ff [kn] fx [km/u] fx [kn] dd ppp [hPa] vv [km] sd [min] rr [mm]
23.05.2018 01:00:00 15,0 14,3 14,8 17,6 19,6 16,3 5 3 8 4 NO 1015,9 9 0 0,0
23.05.2018 00:00:00 15,1 13,9 13,8 17,9 19,9 16,3 4 2 16 9 - 1015,5 9 0 0,0
22.05.2018 23:00:00 15,2 14,0 15,0 18,4 20,2 16,3 4 2 11 6 NW 1015,4 25 0 0,0
22.05.2018 22:00:00 15,4 14,4 14,8 18,8 20,5 16,2 2 1 11 6 - 1014,7 10 0 0,0
22.05.2018 21:00:00 16,2 14,6 15,7 19,5 20,9 16,2 4 2 13 7 - 1014,3 10 0 0,0
22.05.2018 20:00:00 17,0 13,9 16,9 19,9 21,2 16,2 6 3 13 7 ZO 1013,8 30 0 0,0
22.05.2018 19:00:00 16,2 13,2 16,0 19,9 21,8 16,2 8 4 37 20 N 1013,4 25 0 2,0
22.05.2018 18:00:00 16,7 14,0 15,5 20,9 22,3 16,2 15 8 44 24 WNW 1013,2 12 0 6,5
22.05.2018 17:00:00 22,3 13,7 22,3 24,2 22,4 16,2 8 4 13 7 W 1012,4 10 0 0,0
22.05.2018 16:00:00 22,7 13,1 23,3 25,1 22,4 16,2 6 3 13 7 NNO 1012,4 40 0 0,0
22.05.2018 15:00:00 21,8 14,1 19,6 25,6 22,2 16,2 9 5 11 6 NNO 1012,1 40 0 2,0
22.05.2018 14:00:00 24,0 12,6 26,8 27,8 21,6 16,1 6 3 14 7 NNO 1012,1 40 28 0,0
22.05.2018 13:00:00 24,8 13,0 29,9 27,8 20,8 16,1 8 5 15 8 NNW 1012,1 40 59 0,0
22.05.2018 12:00:00 23,0 11,3 26,7 25,4 20,0 16,1 8 4 16 9 NNW 1012,1 25 60 0,0
22.05.2018 11:00:00 22,0 12,2 25,1 22,8 19,4 16,1 8 5 15 8 W 1012,2 20 60 0,0
22.05.2018 10:00:00 21,1 12,4 23,4 20,3 19,0 16,1 4 2 9 5 - 1012,4 10 60 0,0
22.05.2018 09:00:00 19,0 12,2 19,9 18,6 18,9 16,1 5 3 8 4 N 1012,3 10 60 0,0
22.05.2018 08:00:00 16,6 11,6 16,3 17,5 19,0 16,0 3 2 5 3 N 1012,0 25 48 0,0
22.05.2018 07:00:00 14,3 10,7 13,0 16,8 19,3 16,0 6 3 16 9 NO 1012,0 25 1 0,0
22.05.2018 06:00:00 14,0 11,4 12,5 17,2 19,6 16,0 9 5 11 6 ONO 1011,6 10 0 0,0
22.05.2018 05:00:00 14,2 12,2 13,2 17,5 20,0 16,0 7 4 11 6 ONO 1011,9 24 0 0,0
22.05.2018 04:00:00 13,7 12,3 12,2 17,8 20,4 16,0 10 5 11 6 NO 1012,0 27 0 0,0
22.05.2018 03:00:00 15,4 13,2 13,0 18,7 20,8 16,0 3 2 12 6 NNO 1012,2 28 0 0,0
22.05.2018 02:00:00 16,4 13,8 15,1 19,5 21,2 16,0 13 7 18 10 N 1012,2 24 0 0,0
22.05.2018 01:00:00 16,3 13,9 15,3 20,0 21,6 15,9 6 3 13 7 N 1012,5 26 0 0,3
22.05.2018 00:00:00 16,8 13,6 15,3 21,0 22,0 15,9 8 4 25 14 WNW 1012,6 10 0 0,8
21.05.2018 23:00:00 21,1 9,7 20,3 22,1 22,4 15,9 18 10 29 16 ZZO 1012,4 16 0 0,0
21.05.2018 22:00:00 19,6 9,0 18,3 23,1 22,8 15,9 11 6 21 11 ONO 1011,9 10 0 0,0
21.05.2018 21:00:00 21,9 9,1 20,9 24,4 23,0 15,9 10 5 15 8 ONO 1011,6 50 0 0,0
21.05.2018 20:00:00 24,0 8,5 23,4 26,1 23,1 15,9 13 7 26 14 ZO 1011,5 50 53 0,0
21.05.2018 19:00:00 25,1 8,2 26,4 27,1 23,1 15,9 15 8 29 16 - 1011,8 10 52 0,0
21.05.2018 18:00:00 25,1 7,2 26,3 27,6 22,9 15,9 8 4 26 14 ZO 1012,0 10 15 0,0
21.05.2018 17:00:00 26,2 5,0 32,0 28,8 22,6 15,9 15 8 29 16 O 1012,5 10 39 0,0
21.05.2018 16:00:00 25,4 4,2 28,0 29,1 22,1 15,9 18 10 34 18 OZO 1013,1 10 49 0,0
21.05.2018 15:00:00 25,6 6,7 30,7 29,3 21,3 15,9 19 10 32 17 OZO 1013,7 50 60 0,0
21.05.2018 14:00:00 25,7 6,7 30,5 28,3 20,5 15,9 22 12 39 21 ONO 1014,2 50 59 0,0
21.05.2018 13:00:00 25,0 8,1 31,2 26,8 19,6 15,9 18 10 40 21 O 1014,8 50 60 0,0
21.05.2018 12:00:00 24,1 8,5 28,7 24,6 18,8 15,9 22 12 40 22 OZO 1015,3 50 60 0,0
21.05.2018 11:00:00 23,1 9,5 27,1 21,9 18,1 15,8 20 11 28 15 ONO 1016,0 50 60 0,0
21.05.2018 10:00:00 21,0 9,4 24,0 19,2 17,7 15,8 11 6 22 12 ONO 1016,4 10 60 0,0
21.05.2018 09:00:00 17,2 8,5 18,6 17,4 17,6 15,8 7 4 16 9 NNO 1017,0 55 51 0,0
21.05.2018 08:00:00 14,7 7,7 15,5 16,3 17,6 15,8 8 4 13 7 - 1017,3 10 43 0,0
21.05.2018 07:00:00 12,7 7,6 12,6 15,2 17,9 15,8 8 4 13 7 NNO 1017,7 10 34 0,0
21.05.2018 06:00:00 10,8 7,1 9,5 15,2 18,2 15,8 5 3 11 6 N 1018,0 50 0 0,0
21.05.2018 05:00:00 11,3 7,2 7,8 15,6 18,6 15,8 8 5 13 7 NNW 1018,1 50 0 0,0
21.05.2018 04:00:00 11,5 8,2 9,9 16,0 19,0 15,8 9 5 11 6 N 1018,4 10 0 0,0
21.05.2018 03:00:00 12,0 8,3 6,3 16,4 19,5 15,8 8 4 8 4 N 1018,6 10 0 0,0
21.05.2018 02:00:00 11,7 8,1 6,1 17,1 20,0 15,8 4 2 10 6 N 1019,0 50 0 0,0
21.05.2018 01:00:00 14,2 8,2 7,2 18,0 20,5 15,8 9 5 15 8 ONO 1019,5 50 0 0,0
21.05.2018 00:00:00 15,3 8,2 10,5 19,2 21,0 15,8 9 5 18 10 ONO 1019,4 50 0 0,0
20.05.2018 23:00:00 14,6 9,5 9,9 20,2 21,5 15,8 4 2 9 5 ONO 1019,7 50 0 0,0
20.05.2018 22:00:00 18,0 9,4 14,8 21,7 21,9 15,8 6 3 11 6 W 1019,5 50 0 0,0
20.05.2018 21:00:00 20,0 9,3 18,1 23,5 22,2 15,8 7 4 33 18 ZW 1019,1 50 23 0,0
20.05.2018 20:00:00 22,8 7,4 23,5 25,0 22,3 15,8 22 12 44 24 ONO 1018,5 10 60 0,0
20.05.2018 19:00:00 22,8 8,1 22,8 26,5 22,2 15,8 25 13 38 20 NO 1018,5 40 44 0,0
20.05.2018 18:00:00 24,4 9,2 27,4 27,9 21,9 15,8 25 13 37 20 ONO 1018,9 30 58 0,0
20.05.2018 17:00:00 24,9 10,5 29,0 28,3 21,4 15,8 20 11 35 19 NO 1019,5 30 51 0,0
20.05.2018 16:00:00 24,3 11,1 29,3 28,6 20,7 15,8 18 10 35 19 ONO 1020,0 10 52 0,0
20.05.2018 15:00:00 23,6 11,1 28,8 28,3 19,9 15,8 15 8 33 18 NO 1020,8 10 48 0,0
20.05.2018 14:00:00 23,0 10,3 29,4 27,1 18,9 15,8 9 5 23 13 - 1021,4 10 60 0,0
20.05.2018 13:00:00 21,3 9,3 26,9 24,9 18,0 15,8 11 6 25 14 NNO 1022,1 23 60 0,0
20.05.2018 12:00:00 20,6 9,7 25,8 22,2 17,2 15,8 13 7 24 13 NO 1022,6 10 60 0,0
20.05.2018 11:00:00 18,8 9,1 22,4 19,5 16,5 15,8 16 9 26 14 NO 1022,8 10 60 0,0
20.05.2018 10:00:00 17,0 8,7 19,6 16,9 16,1 15,7 13 7 20 11 NNO 1023,2 17 60 0,0
20.05.2018 09:00:00 13,6 8,2 15,3 15,1 16,0 15,7 8 4 11 6 NNO 1023,2 10 60 0,0
20.05.2018 08:00:00 11,3 8,1 11,7 13,8 16,1 15,7 4 2 5 3 N 1022,9 13 60 0,0
20.05.2018 07:00:00 7,9 6,6 7,4 12,8 16,4 15,7 5 3 5 3 NO 1022,8 13 25 0,0
20.05.2018 06:00:00 6,4 5,9 2,4 12,8 16,8 15,7 4 2 5 3 N 1022,6 12 0 0,0
20.05.2018 05:00:00 6,9 6,0 1,9 13,3 17,2 15,7 2 1 5 3 N 1022,5 10 0 0,0
20.05.2018 04:00:00 7,7 6,6 3,0 14,0 17,7 15,7 5 3 9 5 NNO 1022,6 15 0 0,0
20.05.2018 03:00:00 8,3 7,3 2,7 14,5 18,1 15,7 3 1 5 3 NNW 1022,8 15 0 0,0
20.05.2018 02:00:00 8,7 7,4 3,8 15,4 18,6 15,7 4 2 8 4 N 1023,0 20 0 0,0
20.05.2018 01:00:00 10,1 8,3 8,1 16,0 19,1 15,7 4 2 5 3 N 1022,9 20 0 0,0
20.05.2018 00:00:00 9,6 7,6 4,6 17,1 19,6 15,7 5 3 8 4 N 1023,0 20 0 0,0
19.05.2018 23:00:00 12,2 8,4 10,3 18,2 20,1 15,7 5 3 14 8 N 1022,6 20 0 0,0
19.05.2018 22:00:00 13,4 8,2 11,9 19,5 20,5 15,7 11 6 22 12 NNW 1022,3 10 0 0,0
19.05.2018 21:00:00 15,3 6,5 13,7 21,2 20,8 15,7 9 5 15 8 NNW 1021,7 20 37 0,0
19.05.2018 20:00:00 16,8 5,6 17,2 23,2 21,0 15,7 11 6 16 9 NW 1021,4 35 60 0,0
19.05.2018 19:00:00 17,4 5,0 19,3 24,8 20,8 15,7 9 5 19 10 NW 1021,4 35 60 0,0
19.05.2018 18:00:00 17,4 5,0 21,3 26,0 20,5 15,7 9 5 16 9 NW 1021,7 30 60 0,0
19.05.2018 17:00:00 16,7 4,5 20,8 26,5 19,9 15,7 9 5 18 10 NNW 1022,3 25 60 0,0
19.05.2018 16:00:00 16,8 4,8 22,8 26,1 19,2 15,7 9 5 25 13 N 1022,6 10 60 0,0
19.05.2018 15:00:00 15,5 4,2 22,3 24,6 18,4 15,7 8 4 21 11 NW 1022,9 25 54 0,0
19.05.2018 14:00:00 14,3 5,0 17,4 22,3 17,8 15,7 10 5 18 10 NW 1023,2 25 30 0,0
19.05.2018 13:00:00 13,5 4,4 17,7 21,3 17,2 15,7 9 5 19 10 NW 1023,4 25 17 0,0
19.05.2018 12:00:00 13,1 5,0 17,4 19,6 16,7 15,7 8 4 24 13 WNW 1023,4 24 15 0,0
19.05.2018 11:00:00 12,6 4,7 16,4 18,0 16,3 15,7 8 4 16 9 NNW 1023,3 24 5 0,0
19.05.2018 10:00:00 11,8 4,4 14,6 16,3 16,0 15,7 8 4 18 10 - 1023,3 10 20 0,0
19.05.2018 09:00:00 10,8 5,7 12,8 14,6 15,9 15,7 6 4 9 5 NNO 1023,4 20 2 0,0
19.05.2018 08:00:00 9,1 6,6 9,7 13,7 16,0 15,7 2 1 4 2 NO 1023,0 18 0 0,0
19.05.2018 07:00:00 7,4 5,8 8,1 13,0 16,3 15,7 3 1 5 3 NO 1022,9 18 0 0,0
19.05.2018 06:00:00 4,6 3,8 4,3 12,4 16,7 15,7 3 1 4 2 N 1022,6 22 0 0,0
19.05.2018 05:00:00 4,9 3,8 0,4 12,9 17,1 15,7 3 2 5 3 NNW 1022,5 22 0 0,0
19.05.2018 04:00:00 5,3 3,8 1,2 13,5 17,6 15,7 4 2 5 3 N 1022,5 30 0 0,0
19.05.2018 03:00:00 6,6 4,7 1,4 14,4 18,1 15,7 5 3 9 5 N 1022,6 30 0 0,0
19.05.2018 02:00:00 8,4 4,9 6,2 15,4 18,6 15,7 6 3 15 8 NNO 1022,7 30 0 0,0
19.05.2018 01:00:00 9,4 5,1 7,9 16,1 19,0 15,7 9 5 16 9 NNO 1022,6 35 0 0,0
19.05.2018 00:00:00 10,4 5,3 9,2 17,0 19,5 15,7 11 6 21 11 N 1022,5 35 0 0,0
18.05.2018 23:00:00 11,6 5,6 10,4 18,0 20,0 15,7 11 6 15 8 N 1022,1 10 0 0,0
18.05.2018 22:00:00 12,6 5,9 11,4 19,3 20,4 15,7 10 5 21 11 N 1021,8 35 0 0,0
18.05.2018 21:00:00 14,3 6,0 13,9 20,9 20,7 15,7 13 7 22 12 N 1021,5 10 26 0,0
18.05.2018 20:00:00 15,4 5,9 16,8 22,2 20,9 15,7 15 8 21 11 N 1021,5 10 27 0,0
18.05.2018 19:00:00 15,6 6,1 16,6 23,3 20,9 15,7 12 7 29 15 NNW 1021,5 25 13 0,0
18.05.2018 18:00:00 16,4 5,7 19,4 24,7 20,7 15,7 13 7 23 12 NNW 1021,4 10 49 0,0
18.05.2018 17:00:00 16,7 5,4 21,2 25,9 20,3 15,7 15 8 29 16 WNW 1021,7 10 55 0,0
18.05.2018 16:00:00 16,2 5,2 21,4 25,8 19,7 15,7 16 9 28 15 NW 1022,0 25 58 0,0
18.05.2018 15:00:00 15,1 4,3 20,2 25,6 19,0 15,7 16 9 31 17 WNW 1022,2 10 60 0,0
18.05.2018 14:00:00 14,8 5,4 19,5 24,5 18,2 15,7 18 10 29 15 NW 1022,7 10 59 0,0
18.05.2018 13:00:00 14,1 4,7 19,3 22,5 17,5 15,7 14 7 29 16 WNW 1023,1 25 55 0,0
18.05.2018 12:00:00 12,4 3,7 15,7 20,4 16,9 15,7 14 8 25 14 NNW 1023,2 30 49 0,0
18.05.2018 11:00:00 11,7 3,7 16,2 17,8 16,5 15,7 11 6 22 12 NW 1023,5 10 49 0,0
18.05.2018 10:00:00 10,3 3,4 13,4 15,7 16,4 15,6 13 7 21 11 NNW 1023,5 30 26 0,0
18.05.2018 09:00:00 9,5 3,1 12,1 14,6 16,5 15,6 9 5 18 10 NNW 1023,5 25 4 0,0
18.05.2018 08:00:00 8,7 3,6 9,6 14,3 16,6 15,6 9 5 19 10 NW 1023,2 25 0 0,0
18.05.2018 07:00:00 8,4 3,3 8,7 14,3 16,9 15,6 15 8 22 12 NW 1022,8 25 0 0,0
18.05.2018 06:00:00 8,8 3,7 8,9 14,5 17,1 15,6 12 6 18 10 NW 1022,4 17 0 0,0
18.05.2018 05:00:00 8,9 4,1 9,0 14,8 17,4 15,6 12 7 20 11 NNW 1022,4 17 0 0,0
18.05.2018 04:00:00 9,2 4,3 9,3 15,1 17,7 15,6 11 6 22 12 NW 1022,4 15 0 0,0
18.05.2018 03:00:00 9,5 4,6 9,6 15,4 18,0 15,6 13 7 21 11 N 1022,5 11 0 0,0
18.05.2018 02:00:00 9,8 5,0 10,0 15,7 18,4 15,6 11 6 19 10 NNW 1022,5 10 0 0,0
18.05.2018 01:00:00 10,1 5,3 10,1 16,0 18,8 15,6 12 6 18 10 N 1022,7 20 0 0,0
18.05.2018 00:00:00 10,1 5,4 9,5 16,3 19,3 15,6 10 6 21 11 NNW 1022,8 22 0 0,0
17.05.2018 23:00:00 10,6 5,4 9,5 17,4 19,9 15,6 13 7 24 13 NNW 1022,6 22 0 0,0
17.05.2018 22:00:00 12,0 5,5 11,1 18,7 20,4 15,6 13 7 26 14 NNW 1022,2 22 0 0,0
17.05.2018 21:00:00 13,5 5,8 12,5 20,4 20,8 15,6 13 7 31 17 NNW 1021,4 20 48 0,0
17.05.2018 20:00:00 15,3 6,1 15,9 22,4 21,0 15,6 18 10 29 16 NNW 1021,1 10 60 0,0
17.05.2018 19:00:00 17,0 6,6 19,3 24,1 20,9 15,6 18 10 29 16 NNW 1020,7 10 60 0,0
17.05.2018 18:00:00 17,8 6,2 21,2 25,4 20,6 15,6 19 10 36 19 N 1020,7 35 60 0,0
17.05.2018 17:00:00 18,1 5,0 22,2 26,0 20,1 15,6 18 10 35 19 N 1020,7 35 60 0,0
17.05.2018 16:00:00 17,5 4,2 21,5 25,9 19,5 15,6 20 11 35 19 NW 1020,9 35 60 0,0
17.05.2018 15:00:00 16,7 4,9 21,4 25,2 18,8 15,6 18 10 34 18 NW 1021,3 35 60 0,0
17.05.2018 14:00:00 15,8 4,7 20,7 23,9 18,0 15,6 18 10 36 19 NW 1021,6 10 60 0,0
17.05.2018 13:00:00 15,3 5,7 20,1 21,9 17,3 15,6 16 9 33 18 NNW 1021,9 10 59 0,0
17.05.2018 12:00:00 13,5 5,5 17,8 19,4 16,8 15,6 21 11 31 17 NNW 1022,1 10 41 0,0
17.05.2018 11:00:00 11,6 4,6 14,2 17,8 16,5 15,6 18 10 29 16 NNW 1022,1 18 33 0,0
17.05.2018 10:00:00 11,7 4,5 14,8 15,8 16,3 15,6 19 10 29 15 N 1022,0 18 37 0,0
17.05.2018 09:00:00 10,6 4,9 12,7 14,7 16,4 15,6 16 9 26 14 NNW 1021,9 18 5 0,0
17.05.2018 08:00:00 9,7 4,7 10,3 14,1 16,6 15,5 17 9 24 13 NNW 1021,7 18 0 0,0
17.05.2018 07:00:00 9,5 5,2 9,7 14,0 16,8 15,5 14 8 24 13 NNW 1021,6 15 0 0,0
17.05.2018 06:00:00 9,4 5,4 9,4 14,1 17,2 15,5 15 8 23 13 NNW 1021,3 10 0 0,0
17.05.2018 05:00:00 9,5 6,1 9,4 14,4 17,5 15,5 13 7 21 11 N 1021,1 20 0 0,0
17.05.2018 04:00:00 9,6 6,3 9,2 14,6 17,9 15,5 13 7 24 13 N 1020,9 10 0 0,0
17.05.2018 03:00:00 10,0 6,4 9,3 15,2 18,3 15,5 18 10 34 18 N 1020,4 25 0 0,0
17.05.2018 02:00:00 11,1 7,2 10,4 16,0 18,8 15,5 20 11 33 18 NNW 1020,0 25 0 0,0
17.05.2018 01:00:00 12,3 8,2 11,6 16,8 19,2 15,5 26 14 37 20 NNW 1019,9 25 0 0,0

tt = temperatuur
td = dauwpunt
tt 5cm = temperatuur 5cm
tt -5cm = temperatuur -5cm
tt -20cm = temperatuur -20cm
tt -100cm = temperatuur -100cm
ff = windsnelheid
fx = windstoten
dd = windrichting
ppp = luchtdruk
vv = zicht
sd = Zonneschijnduur
rr = neerslag

Weerstations in de omgeving